Weather History for Trenton, NJ

Change the Weather History Date:

Sunday, February 9, 2014

  Actual Average Record
Temperature  
Mean Temperature 24 °F 33 °F  
Max Temperature 28 °F 41 °F 61 °F (1990)
Min Temperature 19 °F 25 °F -14 °F (1934)
Degree Days  
Heating Degree Days 41 32  
Month to date heating degree days 315 294  
Since 1 July heating degree days 3400 3240  
Cooling Degree Days 0 0  
Month to date cooling degree days 0 0  
Year to date cooling degree days 0 0  
Moisture  
Dew Point 17 °F    
Average Humidity 69    
Maximum Humidity 92    
Minimum Humidity 46    
Precipitation  
Precipitation 0.14 in 0.08 in 1.17 in (1969)
Month to date precipitation 2.53 0.65  
Year to date precipitation 5.80 3.81  
Sea Level Pressure  
Sea Level Pressure 30.07 in    
Wind  
Wind Speed 6 mph (WNW)    
Max Wind Speed 13 mph    
Max Gust Speed 18 mph    
Visibility 6 miles    
Events Fog , Snow    
T = Trace of Precipitation, MM = Missing Value Source: NWS Daily Summary

Daily Weather History Graph

Daily Weather History Graph

Search for Another Location

Airport:

Trip Planner

Search our weather history database for the weather conditions in past years. The results will help you decide how hot, cold, wet, or windy it might be!

Date:

Astronomy

Feb. 09, 2014 Rise Set
Actual Time 6:59 AM EST 5:27 PM EST
Civil Twilight 6:31 AM EST 5:55 PM EST
Nautical Twilight 5:59 AM EST 6:27 PM EST
Astronomical Twilight 5:27 AM EST 6:59 PM EST
Moon 1:05 PM EST (2/9) 3:03 AM EST (2/9)
Length of Visible Light 11h 24m
Length of Day
10h 27m
Waxing Gibbous, 77% of the Moon is Illuminated
Feb 9
Waxing Gibbous
Feb 14
Full
Feb 22
Last Quarter
Mar 1
New
Mar 8
First Quarter

Hourly Weather History & Observations

Time (EST) Temp. Windchill Dew Point Humidity Pressure Visibility Wind Dir Wind Speed Gust Speed Precip Events Conditions
12:53 AM 21.9 °F 12.5 °F 10.9 °F 63% 30.17 in 10.0 mi NW 8.1 mph - N/A   Clear
1:53 AM 21.0 °F 11.4 °F 10.0 °F 63% 30.17 in 10.0 mi NW 8.1 mph - N/A   Clear
2:53 AM 21.0 °F 10.6 °F 10.0 °F 63% 30.16 in 10.0 mi NNW 9.2 mph - N/A   Clear
3:53 AM 19.0 °F 8.2 °F 10.0 °F 68% 30.17 in 10.0 mi NW 9.2 mph - N/A   Scattered Clouds
4:53 AM 21.0 °F 11.4 °F 10.9 °F 65% 30.17 in 10.0 mi NW 8.1 mph - N/A   Overcast
5:53 AM 21.0 °F 9.9 °F 10.9 °F 65% 30.18 in 10.0 mi NNW 10.4 mph - N/A   Overcast
6:53 AM 21.0 °F - 10.9 °F 65% 30.17 in 10.0 mi Calm Calm - N/A   Overcast
7:53 AM 21.0 °F 16.2 °F 10.9 °F 65% 30.18 in 10.0 mi North 3.5 mph - N/A   Overcast
8:53 AM 21.9 °F 12.5 °F 10.9 °F 63% 30.18 in 10.0 mi North 8.1 mph - N/A   Clear
9:53 AM 25.0 °F 20.7 °F 10.0 °F 53% 30.18 in 10.0 mi North 3.5 mph - N/A   Partly Cloudy
10:53 AM 27.0 °F - 9.0 °F 47% 30.16 in 10.0 mi Calm Calm - N/A   Overcast
11:53 AM 26.1 °F - 9.0 °F 49% 30.13 in 10.0 mi Calm Calm - N/A   Overcast
12:53 PM 27.0 °F - 9.0 °F 47% 30.06 in 10.0 mi Calm Calm - N/A   Overcast
1:53 PM 28.0 °F 20.8 °F 10.9 °F 49% 30.03 in 10.0 mi South 6.9 mph - N/A   Overcast
2:53 PM 28.0 °F 21.7 °F 12.0 °F 51% 30.03 in 10.0 mi SW 5.8 mph - N/A   Overcast
3:53 PM 28.0 °F 22.8 °F 12.0 °F 51% 30.02 in 10.0 mi South 4.6 mph - N/A   Overcast
4:53 PM 28.0 °F 21.7 °F 14.0 °F 56% 30.00 in 9.0 mi South 5.8 mph - N/A   Overcast
5:09 PM 28.0 °F 20.8 °F 15.1 °F 58% 30.02 in 4.0 mi SSW 6.9 mph - 0.00 in Snow Light Snow
5:21 PM 28.0 °F 21.7 °F 16.0 °F 61% 30.01 in 2.0 mi SSW 5.8 mph - 0.00 in Snow Light Snow
5:39 PM 26.1 °F 20.5 °F 19.0 °F 75% 30.02 in 1.2 mi SW 4.6 mph - 0.01 in Snow Light Snow
5:47 PM 24.8 °F 17.9 °F 21.2 °F 86% 30.02 in 0.8 mi SW 5.8 mph - 0.01 in Snow Light Snow
5:53 PM 25.0 °F 19.3 °F 21.0 °F 85% 30.01 in 0.5 mi SW 4.6 mph - 0.02 in Fog , Snow Snow
6:40 PM 25.0 °F 20.7 °F 23.0 °F 92% 30.03 in 1.0 mi WNW 3.5 mph - 0.06 in Snow Light Snow
6:53 PM 26.1 °F 20.5 °F 23.0 °F 88% 30.02 in 0.8 mi WNW 4.6 mph - 0.07 in Snow Light Snow
7:25 PM 25.0 °F 20.7 °F 23.0 °F 92% 30.01 in 1.0 mi West 3.5 mph - 0.03 in Snow Light Snow
7:53 PM 26.1 °F 21.9 °F 23.0 °F 88% 30.01 in 1.2 mi West 3.5 mph - 0.04 in Snow Light Snow
8:04 PM 25.0 °F - 23.0 °F 92% 30.01 in 1.5 mi Calm Calm - 0.00 in Snow Light Snow
8:14 PM 25.0 °F - 23.0 °F 92% 30.01 in 2.0 mi Calm Calm - 0.00 in Snow Light Snow
8:27 PM 25.0 °F - 21.9 °F 88% 30.01 in 3.0 mi Calm Calm - 0.00 in Snow Light Snow
8:30 PM 25.0 °F - 21.9 °F 88% 30.02 in 2.5 mi Calm Calm - 0.00 in Snow Light Snow
8:40 PM 25.0 °F - 21.9 °F 88% 30.02 in 2.0 mi Calm Calm - 0.01 in Snow Light Snow
8:53 PM 25.0 °F 17.1 °F 23.0 °F 92% 30.01 in 1.8 mi NNW 6.9 mph - 0.01 in Snow Light Snow
9:08 PM 25.0 °F 15.5 °F 23.0 °F 92% 30.02 in 2.0 mi NNW 9.2 mph - 0.00 in Snow Light Snow
9:35 PM 25.0 °F 16.3 °F 23.0 °F 92% 30.02 in 3.0 mi NW 8.1 mph - 0.00 in Snow Light Snow
9:53 PM 26.1 °F 16.8 °F 23.0 °F 88% 30.01 in 5.0 mi WNW 9.2 mph - 0.00 in   Overcast
10:53 PM 26.1 °F 18.4 °F 21.9 °F 84% 30.02 in 5.0 mi WNW 6.9 mph - 0.00 in Snow Light Snow
11:22 PM 25.0 °F 18.1 °F 21.9 °F 88% 30.03 in 6.0 mi West 5.8 mph - 0.00 in   Overcast
11:53 PM 25.0 °F 18.1 °F 21.0 °F 85% 30.02 in 6.0 mi West 5.8 mph - 0.00 in   Overcast